Temp
17 17 18 18 18 18 18 17 17 17 17 16 16 17 17 17 17 17 17 17 17 17 17 17 17 16 17 16 16 16 16 16 17
16 17 18 18 17 17 17 17 16 17 17 16 17 17 17 17 17 17 16 17 17 16 16 16 16 16 16 16 16 16 16 16 16
16 16 16 17 17 16 17 17 16 17 17 16 17 17 17 17 17 17 16 16 16 16 16 16 15 15 15 15 15 15 15 15 15
15 16 16 16 16 16 17 16 16 16 16 17 17 17 17 17 17 16 16 16 16 16 16 16 15 14 14 14 14 14 14 14 15
15 16 16 16 16 16 16 16 15 15 16 16 17 17 17 17 17 16 16 16 16 15 15 15 14 14 14 13 13 13 13 13 13
16 16 16 16 15 16 16 15 15 16 16 16 16 17 17 16 16 16 16 15 15 14 14 14 13 13 13 13 13 12 12 12 12
17 16 16 16 16 16 16 15 16 16 16 16 17 17 17 16 16 16 15 15 14 14 13 13 13 13 12 12 12 12 12 12 11
16 16 16 15 16 15 15 15 16 16 16 16 17 17 16 16 16 16 16 15 14 13 13 13 13 12 12 12 12 12 11 11 11
16 16 16 16 16 16 15 16 16 16 16 16 17 17 16 16 16 16 15 14 14 13 13 12 12 12 12 11 11 11 11 10 10
16 16 16 16 16 16 16 16 16 16 16 16 16 16 16 16 16 15 15 14 13 13 12 12 12 12 11 11 11 10 10 10 10
16 16 16 16 16 16 16 16 16 16 16 16 16 16 16 15 15 14 13 13 13 12 12 12 12 11 11 11 11 10 10 9 9
17 17 16 16 16 16 16 15 15 16 16 16 16 15 15 15 14 13 13 12 12 12 11 11 11 11 11 11 10 10 9 9 9
17 17 16 16 16 16 15 15 15 15 16 16 15 15 14 14 14 13 12 12 12 11 11 10 10 10 10 10 10 10 9 9 9
17 17 17 16 16 16 15 15 15 15 15 15 14 14 14 14 13 13 12 12 11 11 11 11 11 10 9 9 9 9 9 9 9
17 17 17 16 16 15 15 15 15 15 15 14 13 13 13 13 13 12 12 11 11 11 11 10 10 10 10 9 8 8 8 8 8
17 17 17 17 16 16 16 15 14 14 14 13 12 11 12 12 12 11 11 11 11 10 10 10 10 9 9 9 9 8 7 7 8
17 17 18 17 16 16 15 15 13 13 13 12 11 13 11 10 10 11 10 10 10 10 10 9 9 9 9 8 8 8 6 6 7
18 17 17 18 17 16 16 15 15 13 12 13 14 11 14 10 8 9 10 10 9 9 9 9 9 8 8 8 7 6 6 5 6
17 17 16 17 16 16 16 16 15 14 13 11 12 12 12 12 10 7 8 8 8 9 8 8 8 7 7 6 6 5 5 4 5
16 16 17 17 17 16 16 15 14 14 13 13 10 9 10 10 10 9 6 7 7 7 7 7 7 6 6 5 4 4 3 3 3
Height
840 841 842 843 843 844 846 847 849 850 851 852 853 854 855 856 857 857 858 858 858 857 857 858 856 856 854 855 855 854 855 854 853
840 842 843 844 845 845 847 848 850 851 852 853 854 855 856 857 858 859 859 859 859 859 858 858 858 858 857 856 855 855 854 853 853
840 842 843 845 845 846 848 849 850 851 852 853 855 856 857 858 859 859 860 860 860 859 859 859 859 859 859 857 856 856 856 854 854
841 842 844 845 846 847 849 849 850 851 852 854 855 856 857 858 859 861 861 861 861 860 860 859 860 860 860 859 858 857 856 856 855
841 842 844 845 847 848 849 850 851 852 854 855 856 857 858 859 860 861 861 861 861 861 861 861 861 861 860 859 859 858 857 856 856
841 842 843 845 847 848 849 851 852 853 854 856 857 857 859 860 860 862 863 863 862 862 862 862 862 861 861 859 859 859 858 857 857
840 842 844 845 846 848 849 851 852 853 855 856 857 858 859 860 861 862 863 864 863 864 863 863 862 862 861 860 860 859 859 858 858
839 841 843 845 847 848 850 851 852 853 854 855 856 857 858 859 860 861 862 863 863 863 863 863 863 862 861 861 860 860 859 859 857
837 839 841 843 845 847 848 849 851 853 854 854 856 856 857 858 859 859 861 861 862 863 863 863 864 863 862 861 860 860 859 859 857
835 838 840 842 843 845 847 848 849 851 851 853 854 856 856 857 857 858 859 859 860 862 862 862 863 863 863 861 861 861 860 859 858
833 836 838 840 842 844 846 846 848 849 850 851 852 854 854 856 857 858 859 859 860 861 862 863 863 863 862 862 861 861 861 860 859
829 833 835 837 839 841 843 844 846 847 849 850 852 853 853 854 855 857 858 859 860 860 861 861 862 863 863 862 861 860 860 859 859
826 828 831 833 835 838 840 842 844 845 846 848 849 851 851 853 853 854 856 856 858 860 860 860 861 861 862 862 861 860 859 859 859
820 824 827 830 832 833 836 838 840 842 845 846 846 849 850 850 851 853 853 854 855 856 857 857 857 858 859 860 859 859 858 857 857
815 818 821 825 828 829 831 834 837 839 841 844 846 846 847 847 849 851 851 852 853 854 855 856 857 857 856 857 857 857 856 855 854
809 812 815 817 820 823 826 830 832 835 837 841 844 845 845 845 845 847 849 849 851 853 853 854 855 855 854 855 855 853 854 853 852
800 804 806 809 813 817 818 822 826 830 833 837 840 842 845 843 843 843 844 846 847 849 850 850 852 852 851 852 852 851 851 850 850
790 794 798 801 805 807 810 814 818 822 827 830 832 839 833 838 838 839 840 841 842 844 844 845 847 848 848 848 849 849 849 848 848
783 787 790 793 797 800 803 807 810 814 819 825 826 827 828 831 836 836 836 838 839 839 839 841 843 844 844 845 846 845 846 846 846
775 778 781 783 787 792 795 800 802 806 811 814 818 824 826 826 827 829 831 832 834 834 836 837 838 841 841 842 843 843 843 843 842
Wind_Speed
10 11 10 11 12 11 11 15 12 10 10 10 10 9 9 10 10 10 9 7 5 9 12 11 12 14 17 12 2 2 1 2 1
11 15 13 11 14 15 14 12 10 8 8 9 9 7 9 9 10 12 12 10 10 10 11 11 13 14 14 12 15 18 15 17 10
11 16 13 12 13 12 11 9 8 7 8 10 9 8 9 9 9 8 9 9 9 9 9 11 12 11 12 12 11 12 14 15 15
11 14 13 12 11 11 9 7 7 8 8 10 9 8 9 8 7 8 6 7 8 10 11 8 9 11 12 13 13 13 13 12 9
11 12 13 11 10 9 7 7 8 8 8 8 8 7 8 7 7 7 6 6 7 9 9 9 8 10 11 12 13 12 13 12 12
11 11 13 12 10 8 9 8 9 8 8 7 7 7 7 7 7 6 6 6 9 8 8 8 8 9 10 11 11 11 12 12 11
11 11 11 11 10 9 9 9 9 8 7 7 6 7 7 7 6 6 6 6 8 8 8 7 7 8 9 10 10 10 11 11 10
12 12 12 10 10 9 10 10 9 8 8 7 7 7 7 6 5 5 6 8 9 7 7 7 7 7 8 9 9 9 9 9 9
14 13 13 13 12 12 12 12 10 9 8 7 7 7 7 6 5 5 9 11 9 7 7 7 7 7 7 8 8 8 8 8 8
17 16 14 14 14 14 13 12 12 10 11 10 8 7 7 6 6 6 8 14 10 8 8 7 6 6 6 6 7 6 7 7 7
20 19 18 16 15 14 14 14 13 11 11 10 9 8 7 6 6 7 9 11 8 8 7 6 5 5 5 5 5 5 6 6 6
22 20 20 20 17 16 16 15 14 13 12 10 9 9 8 8 8 9 11 8 8 8 7 7 6 5 4 4 4 4 4 5 5
25 24 22 23 21 20 19 18 16 15 14 12 10 9 9 9 9 10 11 11 10 9 8 7 4 4 4 3 4 4 4 4 5
29 29 26 25 25 23 22 21 19 18 16 13 11 10 10 9 11 12 12 12 12 11 9 9 6 4 2 3 4 4 6 5 5
31 31 30 28 27 26 25 23 22 19 17 13 11 10 10 10 12 13 14 13 13 12 11 9 7 5 4 3 3 4 6 6 6
32 34 33 34 32 31 27 26 23 19 19 13 7 8 9 11 13 14 15 15 14 13 12 10 9 7 6 7 8 8 8 7 7
35 37 36 37 34 33 32 32 26 21 23 9 4 3 5 11 14 15 16 16 15 14 13 12 11 9 8 9 10 10 7 7 8
38 39 39 38 39 38 37 36 33 25 25 18 7 3 5 4 10 15 17 18 18 17 16 15 13 11 9 8 7 7 7 8 9
40 40 41 41 40 39 40 39 39 33 24 22 20 9 5 3 2 8 15 17 18 19 18 16 13 11 9 8 7 7 8 10 12
40 42 43 43 42 42 42 41 41 39 29 25 14 16 11 8 3 3 6 15 18 18 18 16 13 11 9 8 7 8 9 12 15
Wind_Direction
147 144 138 155 150 149 147 132 126 117 116 121 120 114 119 109 95 84 89 93 78 84 71 66 73 68 63 97 62 227 39 340 47
155 149 145 140 139 135 132 132 128 129 127 134 129 114 124 117 101 94 82 76 71 68 68 74 72 66 68 70 57 63 72 64 84
160 156 152 156 159 139 142 135 132 130 133 145 138 130 134 132 119 107 97 82 70 65 79 85 74 72 70 67 65 63 58 58 62
161 162 162 151 151 154 152 147 143 138 144 151 147 140 147 143 129 116 96 89 75 89 94 91 81 76 75 74 71 70 63 55 58
162 162 165 164 164 163 159 147 139 143 143 147 155 150 150 146 137 130 110 96 96 103 98 90 88 84 81 75 74 72 71 66 65
163 161 160 164 170 164 155 148 152 151 148 155 164 165 159 157 145 130 121 107 118 98 101 104 94 84 80 80 77 73 68 64 62
171 166 164 166 166 166 159 163 165 162 160 162 160 177 171 160 151 138 131 133 114 104 105 104 95 86 81 79 77 75 69 64 60
180 177 178 177 179 171 168 177 176 173 172 171 163 156 161 166 166 158 144 156 128 114 110 108 103 94 87 81 80 78 69 60 57
196 193 192 191 189 186 185 184 186 193 188 180 178 176 179 182 187 177 164 169 145 132 119 116 108 97 89 85 79 73 67 57 55
209 208 206 201 197 194 194 193 193 202 198 192 192 193 197 200 199 191 177 174 150 139 133 125 112 101 90 79 72 70 61 55 54
215 217 215 210 205 202 201 201 201 197 193 197 201 206 206 204 194 171 159 190 168 145 141 132 118 108 99 82 68 62 47 39 37
220 222 219 214 212 208 206 203 201 201 204 207 210 212 210 200 191 183 178 170 184 155 143 134 121 102 89 69 62 52 33 20 15
225 225 223 217 214 212 210 207 206 203 205 208 212 213 208 203 197 192 189 189 182 170 163 150 130 102 84 69 45 32 13 348 343
229 228 226 221 217 215 214 208 209 206 207 211 213 216 213 210 208 203 197 194 194 193 191 195 195 173 122 45 31 13 5 347 333
231 232 228 223 220 217 214 212 209 212 207 204 213 215 215 212 213 210 203 200 201 204 206 208 213 217 228 268 321 342 339 335 323
232 232 229 225 223 219 215 210 209 206 199 186 207 221 221 217 213 210 209 207 208 212 213 220 227 238 258 276 289 298 312 313 316
231 231 228 225 221 217 215 211 202 204 196 179 145 202 228 225 217 211 211 213 214 218 221 226 234 247 262 280 293 300 310 320 314
232 230 227 226 222 220 217 214 211 194 198 197 169 156 220 166 212 214 213 215 217 219 222 226 234 248 263 275 283 283 300 327 317
236 234 231 227 225 223 222 220 214 210 195 201 219 217 162 184 197 222 218 221 222 220 219 221 230 242 252 264 269 282 298 322 314
238 235 232 229 227 226 227 221 216 215 210 197 190 217 217 215 158 187 204 218 223 218 218 221 230 239 247 259 270 289 311 319 312